SCP
0 0 0 0 0 0 0 0 0 0 0 0 0 0 0 0 0 0 0 0 0 0 0 0 0 0 0 0 0 0 0 0 0 0 0 0 0 0
0 0 0 0 0 0 0 0 0 0 0 0 0 0 0 0 0 0 0 0 0 0 0 0 0 0 0 0 0 0 0 0 0 0 0 0 0 0
0 0 0 0 0 0 0 0 0 0 0 0 0 0 0 0 0 0 0 0 0 0 0 0 0 0 0 0 0 0 0 0 0 0 0 0 0 0
0 0 0 0 0 0 0 0 0 0 0 0 0 0 0 0 0 0 0 0 0 0 0 0 0 0 0 0 0 0 0 0 0 0 0 0 0 0
0 0 0 0 0 0 0 0 0 0 0 0 0 0 0 0 0 0 0 0 0 0 0 0 0 0 0 0 0 0 0 0 0 0 0 0 0 0
0 0 0 0 0 0 0 0 0 0 0 0 0 0 0 0 0 0 0 0 0 0 0 0 0 0 0 0 0 0 0 0 0 0 0 0 0 0
0 0 0 0 0 0 0 0 0 0 0 0 0 0 0 0 0 0 0 0 0 0 0 0 0 0 0 0 0 0 0 0 0 0 0 0 0 0
0 0 0 0 0 0 0 0 0 0 0 0 0 0 0 0 0 0 0 0 0 0 0 0 0 0 0 0 0 0 0 0 0 0 0 0 0 0
0 0 0 0 0 0 0 0 0 0 0 0 0 0 0 0 0 0 0 0 0 0 0 0 0 0 0 0 0 0 0 0 0 0 0 0 0 0
0 0 0 0 0 0 0 0 0 0 0 0 0 0 0 0 0 0 0 0 0 0 0 0 0 0 0 0 0 0 0 0 0 0 0 0 0 0
0 0 0 0 0 0 0 0 0 0 0 0 0 0 0 0 0 0 0 0 0 0 0 0 0 0 0 0 0 0 0 0 0 0 0 0 0 0
0 0 0 0 0 0 0 0 0 0 0 0 0 0 0 0 0 0 0 0 0 0 0 0 0 0 0 0 0 0 0 0 0 0 0 0 0 0
0 0 0 0 0 0 0 0 0 0 0 0 0 0 0 0 0 0 0 0 0 0 0 0 0 0 0 0 0 0 0 0 0 0 0 0 0 0
0 0 0 0 0 0 0 -0 -0 0 0 0 0 0 0 0 0 0 0 0 0 0 0 0 0 0 0 0 0 0 0 0 0 0 0 0 0 0
0 0 0 0 0 0 0 0 0 0 0 0 0 0 0 0 0 0 0 0 0 0 0 0 0 0 0 0 0 0 0 0 0 0 0 0 0 0
0 0 0 0 0 0 0 0 0 0 0 0 0 0 0 0 0 0 0 0 0 0 0 0 0 0 0 0 0 0 0 0 0 0 0 0 0 0
0 0 0 0 0 0 0 0 0 0 0 0 0 0 0 0 0 0 0 0 0 0 0 0 0 0 0 0 0 0 0 0 0 0 0 0 0 0
0 0 0 0 0 0 0 0 0 0 0 0 0 0 0 0 0 0 0 0 0 0 0 0 0 0 0 0 0 0 0 0 0 0 0 0 0 0
0 0 0 0 0 0 0 0 0 0 0 0 0 0 0 0 0 0 0 0 0 0 0 0 0 0 0 0 0 0 0 0 0 0 0 0 0 0
0 0 0 0 0 0 0 0 0 0 0 0 0 0 0 0 0 0 0 0 0 0 0 0 0 0 0 0 0 0 0 0 0 0 0 0 0 0
0 0 0 0 0 0 0 0 0 0 0 0 0 0 0 0 0 0 0 0 0 0 0 0 0 0 0 0 0 0 0 0 0 0 0 0 0 0
0 0 0 0 0 0 0 0 0 0 0 0 0 0 0 0 0 0 0 0 0 0 0 0 0 0 0 0 0 0 0 0 0 0 0 0 0 0
0 0 0 0 0 0 0 0 0 0 0 0 0 0 0 0 0 0 0 0 0 0 0 0 0 0 0 0 0 0 0 0 0 0 0 0 0 0
Wind_Speed_500mb
26 26 25 23 20 21 19 21 21 19 27 10 11 12 13 24 33 46 49 47 46 46 45 45 43 41 40 41 40 38 38 38 40 40 40 42 47 55
27 26 26 22 23 25 26 26 26 29 29 17 19 29 41 41 44 46 39 43 39 41 38 40 42 40 39 41 42 40 39 39 39 38 38 38 38 40
32 33 32 30 30 27 26 26 28 28 40 44 36 31 38 39 34 31 31 31 29 35 31 37 38 38 39 41 41 43 43 40 39 39 38 38 39 41
33 35 34 34 35 34 33 33 33 34 39 50 36 32 29 28 34 34 33 30 32 29 29 32 35 36 39 41 41 41 47 44 43 42 42 42 40 39
38 38 37 37 38 35 35 34 34 35 37 42 46 35 31 30 29 31 25 29 29 31 32 34 38 40 44 43 43 46 50 50 46 46 48 47 46 46
37 38 38 38 40 39 41 42 41 41 39 39 43 38 32 31 29 30 28 27 32 30 29 34 39 44 44 45 46 48 51 53 50 48 49 49 49 50
40 40 41 40 40 40 43 44 43 40 35 33 36 35 34 29 27 27 34 33 39 32 28 24 34 40 44 50 54 55 56 55 54 54 52 52 53 53
42 39 40 43 42 43 45 45 46 47 46 40 38 38 38 35 36 36 34 36 31 21 33 41 40 43 41 39 39 41 47 49 49 52 51 52 53 52
42 42 42 42 42 43 45 47 50 51 51 51 52 48 44 39 42 41 39 38 37 35 40 49 32 32 26 29 32 34 38 44 50 52 52 52 52 52
44 45 45 43 41 42 45 50 54 55 54 54 57 58 56 51 50 50 48 49 48 45 36 41 27 36 32 25 28 32 33 33 36 38 41 43 42 40
41 43 45 48 46 43 48 52 53 56 56 56 55 57 60 60 57 53 49 40 42 41 30 34 40 39 39 31 25 26 27 26 28 33 39 43 46 47
43 45 44 43 44 44 48 51 58 57 54 56 59 57 57 61 59 58 54 55 45 44 34 31 37 35 21 21 25 26 28 34 38 43 47 50 50 50
49 48 47 48 49 47 46 50 55 54 57 58 62 60 59 62 65 64 62 62 60 61 49 48 50 37 33 39 40 38 42 45 43 44 51 53 49 49
57 54 52 51 53 55 54 53 52 49 53 60 64 66 65 69 66 66 64 62 64 63 56 55 52 43 38 43 49 41 42 41 42 40 44 46 44 47
63 62 62 61 59 57 56 54 55 53 54 58 65 69 68 71 67 65 63 65 66 64 62 58 58 56 50 50 51 50 44 45 41 35 31 37 40 40
63 61 65 65 64 62 60 60 58 57 56 59 61 64 68 64 71 66 63 62 63 66 63 59 57 56 56 51 46 51 45 35 40 42 42 38 35 34
56 61 63 66 58 57 56 59 58 56 54 54 56 61 64 69 78 75 68 67 67 65 61 54 51 52 51 49 50 51 49 44 41 35 37 36 32 30
57 61 64 65 58 60 57 58 54 55 59 63 63 64 64 67 72 75 74 70 68 65 62 57 48 46 47 52 52 52 46 42 35 31 32 37 38 28
56 61 62 61 64 66 65 58 61 62 60 64 66 65 68 67 65 71 73 71 70 67 60 51 45 47 43 39 35 31 32 35 31 33 31 30 33 34
49 57 58 60 63 60 60 60 65 67 64 67 60 67 67 66 64 68 71 72 69 63 54 49 47 50 52 38 23 23 22 28 32 34 33 30 31 33
52 55 57 58 59 62 59 60 62 63 64 58 59 66 65 62 62 63 64 66 63 60 54 47 46 39 37 36 40 39 27 27 32 33 29 28 27 23
54 58 61 63 63 60 57 62 62 61 63 60 59 59 63 63 59 59 62 61 58 54 48 36 37 34 37 37 33 28 29 25 26 28 28 30 26 10
62 63 65 66 64 63 60 61 61 62 66 59 59 58 57 61 55 54 54 53 48 42 37 36 35 36 36 35 33 31 26 25 22 21 23 19 21 21
Wind_Direction_500mb
294 288 284 275 268 266 265 269 276 296 300 307 287 277 281 286 286 281 282 286 275 270 268 263 263 265 266 265 263 262 263 265 265 263 264 264 261 260
294 289 288 284 274 271 270 269 263 264 268 272 277 278 293 291 296 296 295 294 292 279 267 260 260 260 261 262 263 264 261 259 260 263 269 272 271 272
297 294 294 287 281 278 273 268 268 266 270 281 283 285 289 298 298 298 298 294 296 295 282 259 261 261 260 262 264 261 259 259 258 258 261 263 268 272
294 292 293 291 288 285 281 276 272 273 275 284 287 287 287 285 282 289 289 294 291 284 265 256 256 260 261 264 267 261 258 260 263 264 265 265 267 272
294 292 292 290 289 288 284 279 280 279 277 280 288 288 289 292 294 294 297 274 286 278 271 262 262 262 261 262 264 263 265 263 265 266 265 264 267 272
292 288 288 288 289 289 287 287 287 284 282 279 283 289 286 289 289 296 294 295 288 290 279 269 264 263 261 257 260 262 265 267 266 263 262 263 265 267
297 296 291 287 284 283 285 287 287 284 281 275 277 283 288 291 289 289 289 297 299 302 282 271 270 265 264 265 266 264 262 265 265 262 259 262 267 269
296 294 292 290 289 286 284 284 282 280 279 274 273 275 282 283 284 292 280 295 307 286 280 282 287 285 277 266 265 264 262 260 259 259 257 262 267 270
300 297 293 289 287 284 285 281 278 278 277 278 271 272 275 278 280 287 286 289 285 286 295 298 302 293 289 281 269 265 261 258 262 266 263 265 265 269
306 305 302 300 295 291 286 281 281 281 280 277 275 279 274 275 273 281 282 284 287 290 289 285 294 293 293 295 279 267 267 264 264 271 274 274 273 273
308 307 308 307 306 299 293 290 286 282 282 279 275 275 274 274 274 274 272 277 284 289 283 280 293 294 303 299 265 256 251 254 264 270 270 273 272 270
306 307 307 305 304 301 295 293 291 294 291 286 284 276 271 270 268 267 269 266 266 282 284 261 281 298 305 285 261 264 267 264 264 270 271 274 276 274
295 297 299 301 303 304 299 290 289 292 289 285 283 279 272 268 266 267 266 265 264 266 267 278 282 279 277 280 281 272 277 277 279 281 274 270 273 276
290 290 291 295 300 303 304 305 304 292 280 280 279 273 272 275 272 269 269 266 265 268 268 266 270 274 272 277 281 288 286 286 292 288 285 282 276 270
288 293 295 294 293 293 295 297 298 295 294 277 272 272 269 276 280 272 267 262 263 264 264 263 266 270 268 267 273 280 292 292 294 290 291 291 288 282
291 291 291 292 291 292 292 292 291 288 286 293 285 277 274 270 272 271 265 264 265 265 264 264 263 261 263 264 269 276 279 280 287 292 294 291 286 283
288 289 289 290 287 286 286 290 289 287 279 283 285 285 279 277 270 272 264 259 256 260 263 264 257 255 257 262 261 267 277 281 286 292 291 290 287 285
284 282 283 283 279 280 277 278 276 275 279 279 283 283 282 279 272 268 266 257 254 253 256 257 254 250 255 261 260 266 268 271 276 282 289 289 289 284
275 277 278 277 278 282 285 281 280 281 286 291 280 281 281 280 272 262 261 258 252 249 250 254 244 235 235 243 263 260 257 264 263 276 285 284 285 290
279 279 278 278 279 283 282 279 286 289 284 293 281 282 283 278 270 261 256 255 250 244 241 243 239 236 238 244 245 254 245 258 265 274 278 281 286 294
287 289 293 291 292 290 285 283 286 287 287 287 285 285 284 277 271 263 256 254 246 241 241 239 244 243 242 244 252 265 273 260 263 263 268 276 287 282
283 286 289 291 292 291 287 284 286 286 287 285 284 286 283 277 271 264 256 244 237 239 241 238 235 230 238 245 253 262 270 269 264 262 263 260 253 258
292 291 291 291 291 289 286 285 283 284 286 287 287 286 282 275 270 260 252 242 234 229 224 224 234 238 242 249 255 263 265 266 263 266 270 257 241 241
Wind_Speed_850mb
26 26 25 23 20 21 19 21 21 19 27 10 11 12 13 24 33 46 49 47 46 46 45 45 43 41 40 41 40 38 38 38 40 40 40 42 47 55
27 26 26 22 23 25 26 26 26 29 29 17 19 29 41 41 44 46 39 43 39 41 38 40 42 40 39 41 42 40 39 39 39 38 38 38 38 40
32 33 32 30 30 27 26 26 28 28 40 44 36 31 38 39 34 31 31 31 29 35 31 37 38 38 39 41 41 43 43 40 39 39 38 38 39 41
33 35 34 34 35 34 33 33 33 34 39 50 36 32 29 28 34 34 33 30 32 29 29 32 35 36 39 41 41 41 47 44 43 42 42 42 40 39
38 38 37 37 38 35 35 34 34 35 37 42 46 35 31 30 29 31 25 29 29 31 32 34 38 40 44 43 43 46 50 50 46 46 48 47 46 46
37 38 38 38 40 39 41 42 41 41 39 39 43 38 32 31 29 30 28 27 32 30 29 34 39 44 44 45 46 48 51 53 50 48 49 49 49 50
40 40 41 40 40 40 43 44 43 40 35 33 36 35 34 29 27 27 34 33 39 32 28 24 34 40 44 50 54 55 56 55 54 54 52 52 53 53
42 39 40 43 42 43 45 45 46 47 46 40 38 38 38 35 36 36 34 36 31 21 33 41 40 43 41 39 39 41 47 49 49 52 51 52 53 52
42 42 42 42 42 43 45 47 50 51 51 51 52 48 44 39 42 41 39 38 37 35 40 49 32 32 26 29 32 34 38 44 50 52 52 52 52 52
44 45 45 43 41 42 45 50 54 55 54 54 57 58 56 51 50 50 48 49 48 45 36 41 27 36 32 25 28 32 33 33 36 38 41 43 42 40
41 43 45 48 46 43 48 52 53 56 56 56 55 57 60 60 57 53 49 40 42 41 30 34 40 39 39 31 25 26 27 26 28 33 39 43 46 47
43 45 44 43 44 44 48 51 58 57 54 56 59 57 57 61 59 58 54 55 45 44 34 31 37 35 21 21 25 26 28 34 38 43 47 50 50 50
49 48 47 48 49 47 46 50 55 54 57 58 62 60 59 62 65 64 62 62 60 61 49 48 50 37 33 39 40 38 42 45 43 44 51 53 49 49
57 54 52 51 53 55 54 53 52 49 53 60 64 66 65 69 66 66 64 62 64 63 56 55 52 43 38 43 49 41 42 41 42 40 44 46 44 47
63 62 62 61 59 57 56 54 55 53 54 58 65 69 68 71 67 65 63 65 66 64 62 58 58 56 50 50 51 50 44 45 41 35 31 37 40 40
63 61 65 65 64 62 60 60 58 57 56 59 61 64 68 64 71 66 63 62 63 66 63 59 57 56 56 51 46 51 45 35 40 42 42 38 35 34
56 61 63 66 58 57 56 59 58 56 54 54 56 61 64 69 78 75 68 67 67 65 61 54 51 52 51 49 50 51 49 44 41 35 37 36 32 30
57 61 64 65 58 60 57 58 54 55 59 63 63 64 64 67 72 75 74 70 68 65 62 57 48 46 47 52 52 52 46 42 35 31 32 37 38 28
56 61 62 61 64 66 65 58 61 62 60 64 66 65 68 67 65 71 73 71 70 67 60 51 45 47 43 39 35 31 32 35 31 33 31 30 33 34
49 57 58 60 63 60 60 60 65 67 64 67 60 67 67 66 64 68 71 72 69 63 54 49 47 50 52 38 23 23 22 28 32 34 33 30 31 33
52 55 57 58 59 62 59 60 62 63 64 58 59 66 65 62 62 63 64 66 63 60 54 47 46 39 37 36 40 39 27 27 32 33 29 28 27 23
54 58 61 63 63 60 57 62 62 61 63 60 59 59 63 63 59 59 62 61 58 54 48 36 37 34 37 37 33 28 29 25 26 28 28 30 26 10
62 63 65 66 64 63 60 61 61 62 66 59 59 58 57 61 55 54 54 53 48 42 37 36 35 36 36 35 33 31 26 25 22 21 23 19 21 21
Wind_Direction_850mb
294 288 284 275 268 266 265 269 276 296 300 307 287 277 281 286 286 281 282 286 275 270 268 263 263 265 266 265 263 262 263 265 265 263 264 264 261 260
294 289 288 284 274 271 270 269 263 264 268 272 277 278 293 291 296 296 295 294 292 279 267 260 260 260 261 262 263 264 261 259 260 263 269 272 271 272
297 294 294 287 281 278 273 268 268 266 270 281 283 285 289 298 298 298 298 294 296 295 282 259 261 261 260 262 264 261 259 259 258 258 261 263 268 272
294 292 293 291 288 285 281 276 272 273 275 284 287 287 287 285 282 289 289 294 291 284 265 256 256 260 261 264 267 261 258 260 263 264 265 265 267 272
294 292 292 290 289 288 284 279 280 279 277 280 288 288 289 292 294 294 297 274 286 278 271 262 262 262 261 262 264 263 265 263 265 266 265 264 267 272
292 288 288 288 289 289 287 287 287 284 282 279 283 289 286 289 289 296 294 295 288 290 279 269 264 263 261 257 260 262 265 267 266 263 262 263 265 267
297 296 291 287 284 283 285 287 287 284 281 275 277 283 288 291 289 289 289 297 299 302 282 271 270 265 264 265 266 264 262 265 265 262 259 262 267 269
296 294 292 290 289 286 284 284 282 280 279 274 273 275 282 283 284 292 280 295 307 286 280 282 287 285 277 266 265 264 262 260 259 259 257 262 267 270
300 297 293 289 287 284 285 281 278 278 277 278 271 272 275 278 280 287 286 289 285 286 295 298 302 293 289 281 269 265 261 258 262 266 263 265 265 269
306 305 302 300 295 291 286 281 281 281 280 277 275 279 274 275 273 281 282 284 287 290 289 285 294 293 293 295 279 267 267 264 264 271 274 274 273 273
308 307 308 307 306 299 293 290 286 282 282 279 275 275 274 274 274 274 272 277 284 289 283 280 293 294 303 299 265 256 251 254 264 270 270 273 272 270
306 307 307 305 304 301 295 293 291 294 291 286 284 276 271 270 268 267 269 266 266 282 284 261 281 298 305 285 261 264 267 264 264 270 271 274 276 274
295 297 299 301 303 304 299 290 289 292 289 285 283 279 272 268 266 267 266 265 264 266 267 278 282 279 277 280 281 272 277 277 279 281 274 270 273 276
290 290 291 295 300 303 304 305 304 292 280 280 279 273 272 275 272 269 269 266 265 268 268 266 270 274 272 277 281 288 286 286 292 288 285 282 276 270
288 293 295 294 293 293 295 297 298 295 294 277 272 272 269 276 280 272 267 262 263 264 264 263 266 270 268 267 273 280 292 292 294 290 291 291 288 282
291 291 291 292 291 292 292 292 291 288 286 293 285 277 274 270 272 271 265 264 265 265 264 264 263 261 263 264 269 276 279 280 287 292 294 291 286 283
288 289 289 290 287 286 286 290 289 287 279 283 285 285 279 277 270 272 264 259 256 260 263 264 257 255 257 262 261 267 277 281 286 292 291 290 287 285
284 282 283 283 279 280 277 278 276 275 279 279 283 283 282 279 272 268 266 257 254 253 256 257 254 250 255 261 260 266 268 271 276 282 289 289 289 284
275 277 278 277 278 282 285 281 280 281 286 291 280 281 281 280 272 262 261 258 252 249 250 254 244 235 235 243 263 260 257 264 263 276 285 284 285 290
279 279 278 278 279 283 282 279 286 289 284 293 281 282 283 278 270 261 256 255 250 244 241 243 239 236 238 244 245 254 245 258 265 274 278 281 286 294
287 289 293 291 292 290 285 283 286 287 287 287 285 285 284 277 271 263 256 254 246 241 241 239 244 243 242 244 252 265 273 260 263 263 268 276 287 282
283 286 289 291 292 291 287 284 286 286 287 285 284 286 283 277 271 264 256 244 237 239 241 238 235 230 238 245 253 262 270 269 264 262 263 260 253 258
292 291 291 291 291 289 286 285 283 284 286 287 287 286 282 275 270 260 252 242 234 229 224 224 234 238 242 249 255 263 265 266 263 266 270 257 241 241